User: anonymous   Login
Location: Moscow
(55.7500°N, 37.5830°E)
Time: 04:12:34
(UTC+03:00)
Language:

IRIDIUM 33 DEB - Orbit

View from above orbital plane
View from above orbital plane
View from above satellite
View from above satellite

Ground track
Ground track

The orbit data is extracted from the following two-line orbital elements,

1 33956U 97051BR  22181.53833545  .00029206  00000-0  20628-2 0  9997
2 33956  86.3966 181.3857 0018817  68.4330  59.3183 15.04646234461272
Epoch (UTC): 30 June 2022 12:55:12
Eccentricity: 0.0018817
inclination: 86.3966°
perigee height: 539 km
apogee height: 565 km
right ascension of ascending node: 181.3857°
argument of perigee: 68.4330°
revolutions per day: 15.04646234
mean anomaly at epoch: 59.3183°
orbit number at epoch: 46127

The dashed part of the orbit path shows where the satellite is in the earth's shadow,  

DLR